Location: Kerentrech
(47.7567°N, 3.3595°W)
Time: 13:58:02
(UTC+00:00)

SL-16 R/B - Pass Details

Date: 17 February 2020
Orbit: 843 x 847 km, 71.0° (Epoch: 27 March)

Event Time Altitude Azimuth Distance (km) Brightness Sun altitude
Exits shadow 06:23:41 12° 269° (W) 2,352 3.9 -9.6°
Maximum altitude 06:27:38 22° 317° (NW) 1,754 3.4 -8.9°
Drops below altitude 10° 06:32:02 10° 8° (N) 2,477 4.6 -8.2°
Sets 06:35:03 0° 23° (NNE) 3,415 5.5 -7.7°
